Location: Friedrichshafen
(47.6598°N, 9.4819°E)
Time: 04:07:10
(UTC+01:00)

Envisat - Visible Passes

Search period start: 21 February 2018 00:00
Search period end: 03 March 2018 00:00
Orbit: 764 x 766 km, 98.2° (Epoch: 20 February)

Date Brightness Start Highest point End Pass type
(mag) Time Alt. Az. Time Alt. Az. Time Alt. Az.
21 Feb 3.2 19:54:58 10° S 20:00:03 72° WSW 20:05:09 10° NNW visible
22 Feb 3.0 19:18:25 10° SSE 19:23:22 56° ENE 19:28:21 10° N visible
22 Feb 5.3 20:58:56 10° SW 21:02:45 21° W 21:06:35 10° NW visible
23 Feb 3.8 18:42:33 10° ESE 18:46:52 29° ENE 18:51:12 10° N visible
23 Feb 4.1 20:20:55 10° S 20:25:43 43° W 20:30:35 10° NNW visible
24 Feb 2.9 19:43:49 10° SSE 19:48:54 88° WSW 19:54:02 10° NNW visible
24 Feb 5.9 21:26:33 10° WSW 21:28:40 12° W 21:30:48 10° WNW visible
25 Feb 3.3 19:07:27 10° SE 19:12:17 46° ENE 19:17:07 10° N visible
25 Feb 5.0 20:47:18 10° SSW 20:51:30 26° W 20:55:45 10° NW visible
26 Feb 4.1 18:31:51 10° ESE 18:35:50 24° ENE 18:39:52 10° N visible
26 Feb 3.7 20:09:35 10° S 20:14:32 53° W 20:19:32 10° NNW visible
27 Feb 2.9 19:32:43 10° SSE 19:37:46 76° ENE 19:42:52 10° N visible
27 Feb 5.7 21:14:21 10° SW 21:17:23 16° W 21:20:25 10° NW visible
28 Feb 3.5 18:56:33 10° SE 19:01:12 38° ENE 19:05:53 10° N visible
28 Feb 4.7 20:35:45 10° SSW 20:40:16 32° W 20:44:49 10° NNW visible
01 Mar 3.3 19:58:19 10° S 20:03:22 66° WSW 20:08:27 10° NNW visible
02 Mar 3.0 19:21:40 10° SSE 19:26:40 61° ENE 19:31:41 10° N visible
02 Mar 5.4 21:02:29 10° SW 21:06:06 19° W 21:09:45 10° NW visible
